Powrót do katalogu

GSAT 1

AktywnyŁącznośćMEO
NORAD 26745·PAYLOAD·🇮🇳 India

Wystrzelony Apr 18, 2001 z Satish Dhawan Space Centre

Loading…

Następne Przeloty (najbliższe 24 godziny)

TLE

ŚwieżeSource: Space-Track

Epoka: Sep 14, 2026, 03:24 UTC

1 26745U 01015A   26257.14213037 -.00000121  00000-0  00000-0 0  9999
2 26745  12.8281   3.1101 0234187 295.4979  76.3222  1.03820638 96451

Śledź GSAT 1 w czasie rzeczywistym z AllMySat

Download on the App Store